This is the latest recevied weather packets stored in our database for station/object OK1TBM-13. If no packets are shown the sender has not sent any weather packets the latest 10 day(s).
| Time | Temp. | Humidity | Pressure | Rain* | Wind** | Luminosity | Snow |
|---|---|---|---|---|---|---|---|
| 1788195901 | 23.89° C | 56% | 1013.9 hPa | 0 mm | - | 32 W/m² | - |
| 1788195601 | 23.89° C | 56% | 1013.9 hPa | 0 mm | - | 38 W/m² | - |
| 1788195321 | 23.33° C | 56% | 1013.9 hPa | 0 mm | - | 34 W/m² | - |
| 1788195002 | 23.89° C | 55% | 1013.9 hPa | 0 mm | - | 48 W/m² | - |
| 1788194702 | 23.89° C | 55% | 1013.9 hPa | 0 mm | - | 58 W/m² | - |
| 1788194101 | 23.33° C | 56% | 1013.9 hPa | 0 mm | - | 79 W/m² | - |
| 1788193801 | 23.33° C | 56% | 1013.9 hPa | 0 mm | - | 88 W/m² | - |
| 1788193501 | 22.78° C | 59% | 1013.9 hPa | 0 mm | - | 53 W/m² | - |
| 1788192902 | 23.33° C | 56% | 1013.9 hPa | 0 mm | - | 50 W/m² | - |
| 1788192607 | 23.89° C | 56% | 1013.9 hPa | 0 mm | - | 53 W/m² | - |
| 1788192301 | 24.44° C | 55% | 1013.9 hPa | 0 mm | - | 135 W/m² | - |
| 1788192014 | 24.44° C | 55% | 1013.9 hPa | 0 mm | - | 147 W/m² | - |
| 1788191701 | 24.44° C | 54% | 1013.9 hPa | 0 mm | - | 128 W/m² | - |
| 1788191400 | 24.44° C | 54% | 1013.9 hPa | 0 mm | - | 173 W/m² | - |
| 1788191100 | 24.44° C | 53% | 1013.9 hPa | 0 mm | - | 182 W/m² | - |
| 1788190801 | 25° C | 54% | 1013.9 hPa | 0 mm | - | 201 W/m² | - |
| 1788190501 | 25° C | 54% | 1014.2 hPa | 0 mm | - | 144 W/m² | - |
| 1788190201 | 25° C | 55% | 1014.2 hPa | 0 mm | - | 220 W/m² | - |
| 1788189902 | 25° C | 55% | 1014.2 hPa | 0 mm | - | 244 W/m² | - |
| 1788189600 | 25° C | 56% | 1014.2 hPa | 0 mm | - | 261 W/m² | - |
| 1788189301 | 25° C | 56% | 1014.2 hPa | 0 mm | - | 249 W/m² | - |
| 1788188701 | 24.44° C | 56% | 1014.2 hPa | 0 mm | - | 301 W/m² | - |
| 1788188401 | 24.44° C | 57% | 1014.2 hPa | 0 mm | - | 336 W/m² | - |
| 1788188102 | 24.44° C | 59% | 1014.2 hPa | 0 mm | - | 328 W/m² | - |
| 1788187502 | 24.44° C | 60% | 1014.2 hPa | 0 mm | - | 102 W/m² | - |
* Rain latest hour (hover to see other rain measurements)
** Current wind speed in m/s (hover to see current wind gust speed)